Regional Weather Roundup
Issued by NWS

Home | Current Version | Previous Version | Text Only | Print | Product List | Glossary Off
Versions: 1 2 3 4 5 6 7 8 9 10 11 12 13 14 15 16 17 18 19 20 21 22 23 24 25 26 27 28 29 30 31 32 33 34 35 36 37 38 39 40 41 42 43 44 45 46 47 48 49 50

000
ASUS43 KMKX 131200
RWRWI

WISCONSIN REGIONAL WEATHER ROUNDUP
NATIONAL WEATHER SERVICE MILWAUKEE/SULLIVAN WI
700 AM CDT SUN JUL 13 2014

NOTE: "FAIR" INDICATES FEW OR NO CLOUDS BELOW 12,000 FEET WITH NO
SIGNIFICANT WEATHER AND/OR OBSTRUCTIONS TO VISIBILITY.

WIZ001-002-006>008-014>016-023>028-131300-
NORTHWEST WISCONSIN

CITY           SKY/WX    TMP DP  RH WIND       PRES   REMARKS
SUPERIOR ARPT  SUNNY     54  51  89 CALM      29.91R
ASHLAND        SUNNY     56  52  86 SW6       29.91R
6HR MIN TEMP:  52; 6HR MAX TEMP:  64;

HAYWARD        SUNNY     56  52  86 CALM      29.92S
6HR MIN TEMP:  55; 6HR MAX TEMP:  64; 6HR PCP: TRACE;

SIREN          SUNNY     54  53  95 CALM      29.94R
RICE LAKE      MOSUNNY   57  54  89 NW5       29.94R
LADYSMITH      MOSUNNY   59  56  89 NW9       29.93R
EAU CLAIRE     NOT AVBL
MENOMONIE      SUNNY     62  59  88 W3        29.93S
6HR MIN TEMP:  62; 6HR MAX TEMP:  64;

NEW RICHMOND   SUNNY     58  56  94 NW5       29.96R
OSCEOLA        MOSUNNY   59  57  94 NW5       29.97R
$$

WIZ003>005-009-010-017-018-131300-
NORTH CENTRAL WISCONSIN

CITY           SKY/WX    TMP DP  RH WIND       PRES   REMARKS
WOODRUFF       MOSUNNY   59  54  83 NW12G18   29.88R
RHINELANDER    PTSUNNY   61  58  90 W13       29.88R
6HR MIN TEMP:  60; 6HR MAX TEMP:  62;

EAGLE RIVER    CLOUDY    59  53  80 NW8       29.86R
LAND O LAKES   PTSUNNY   58  52  79 NW10      29.87R
PHILLIPS       PTSUNNY   57  55  93 NW3       29.90R
TOMAHAWK       MOSUNNY   60  59  95 W5        29.89R
MEDFORD        MOSUNNY   61  59  95 W6        29.90R
MERRILL        PTSUNNY   63  61  94 W8        29.87S
$$

WIZ029-030-035-036-043>047-131300-
CENTRAL WISCONSIN

CITY           SKY/WX    TMP DP  RH WIND       PRES   REMARKS
WAUSAU         PTSUNNY   64  62  93 W12       29.87R
6HR MIN TEMP:  62; 6HR MAX TEMP:  64;

MOSINEE        PTSUNNY   63  63 100 W7        29.89S FOG
MARSHFIELD     CLOUDY    63  63 100 W8        29.90R FOG
6HR MIN TEMP:  60; 6HR MAX TEMP:  64;

STEVENS POINT  CLOUDY    61  60  96 W9        29.89S FOG
WAUPACA        MOSUNNY   65  63  93 SW7       29.89R FOG
WAUTOMA        NOT AVBL
WISC RAPIDS    CLOUDY    65  63  93 W6        29.91R
6HR MIN TEMP:  61; 6HR MAX TEMP:  65;

CAMP DOUGLAS   NOT AVBL
$$

WIZ011>013-019>022-031-037>040-048>050-131300-
NORTHEAST WISCONSIN

CITY           SKY/WX    TMP DP  RH WIND       PRES   REMARKS
ANTIGO         CLOUDY    62  60  96 W9        29.88R
STURGEON BAY   PTSUNNY   64  61  88 W9        29.85R
6HR MIN TEMP:  61; 6HR MAX TEMP:  64;

GREEN BAY      CLOUDY    64  62  93 SW6       29.86S
6HR MIN TEMP:  62; 6HR MAX TEMP:  64;

MANITOWOC      NOT AVBL
APPLETON       PTSUNNY   63  63 100 W12       29.89R
CLINTONVILLE   MOSUNNY   63  61  94 W8        29.86S
OSHKOSH        CLOUDY    64  62  93 W8        29.89R
6HR MIN TEMP:  63; 6HR MAX TEMP:  65;

$$

WIZ032>034-041-042-053>061-131300-
SOUTHWEST WISCONSIN

CITY           SKY/WX    TMP DP  RH WIND       PRES   REMARKS
LA CROSSE      SUNNY     66  65  96 SE3       29.91S
6HR MIN TEMP:  63; 6HR MAX TEMP:  66;

SPARTA         MOSUNNY   61  60  97 CALM      29.92S FOG
VIROQUA        CLOUDY    64  64 100 SW7       29.95R VSB<1/4
BOSCOBEL       CLOUDY    67  64  90 SW5       29.95R FOG
6HR MIN TEMP:  63; 6HR MAX TEMP:  67;

PRAIRIE DU CHI CLOUDY    66  63  91 CALM      29.96R
PLATTEVILLE    CLOUDY    65  64  96 W6        29.98R
$$

WIZ056-057-062-063-064-067-068-131300-
SOUTH CENTRAL WISCONSIN

CITY           SKY/WX    TMP DP  RH WIND       PRES   REMARKS
BARABOO/DELLS  SUNNY     63  61  94 CALM      29.92S
LONE ROCK      CLOUDY    70  64  83 W5        29.95R HAZE
WATERTOWN      CLOUDY    63  63  99 SW6       29.91S
MADISON        CLOUDY    66  63  90 VRB3      29.93R
6HR MIN TEMP:  65; 6HR MAX TEMP:  66;

MIDDLETON      CLOUDY    65  65 100 W9        29.94R
MONROE         CLOUDY    63  61  94 W12       29.96R FOG
JANESVILLE     CLOUDY    64  63  94 W5        29.94R
$$

WIZ051-052-058>065-066-070>072-131300-
SOUTHEAST WISCONSIN

CITY           SKY/WX    TMP DP  RH WIND       PRES   REMARKS
MILWAUKEE      MOSUNNY   66  61  84 W10       29.91R
6HR MIN TEMP:  65; 6HR MAX TEMP:  68;

WAUKESHA       PTSUNNY   63  61  94 W12       29.92S FOG
MILWAUKEE/TIMM MOSUNNY   64  61  88 W9        29.91R
RACINE         CLOUDY    65  63  93 W8        29.93R
6HR MIN TEMP:  65; 6HR MAX TEMP:  69; 6HR PCP: TRACE;

BURLINGTON     CLOUDY    63  62  97 W8        29.92S
KENOSHA        CLOUDY    65  64  97 W7        29.92R
6HR MIN TEMP:  64; 6HR MAX TEMP:  70;

FOND DU LAC    CLOUDY    65  62  90 W6        29.90R
6HR MIN TEMP:  62; 6HR MAX TEMP:  65;

SHEBOYGAN      MOSUNNY   65  62  90 W16       29.88R
6HR MIN TEMP:  62; 6HR MAX TEMP:  65;

WEST BEND      PTSUNNY   63  59  88 W10       29.90R
JUNEAU         CLOUDY    63  48  59 SW7       29.93R HAZE
$$

LSZ147-162-131300-
LAKE SUPERIOR

STATION/POSITION TIME  TEMP    WIND        PRES    WAVE
                       AIR SEA DIR/SP/G            HT/PER
                 (UTC) (F)     (DEG/KT/KT) (MB)    (FT/S)
W MID LAKE BUOY  1050   45 38  270/ 10/ 12 1009.8R   1/ 3
PORT WING        1140   57     250/  6/  9 1012.5R
SAXON HARBOR     1100          220/  3/  6 1011.9R
$$

LMZ867-665-643>646-131300-
LAKE MICHIGAN

STATION/POSITION TIME  TEMP    WIND        PRES    WAVE
                       AIR SEA DIR/SP/G            HT/PER
                 (UTC) (F)     (DEG/KT/KT) (MB)    (FT/S)
N MID LAKE BUOY  1050   61 58  230/ 10/ 12 1007.5R   1/ 4
NORTHPORT PIER   1100   64     260/  5/ 12 1008.8R
KEWAUNEE LAKESHO 1100   63     280/  6/ 10 1010.8R
SHEBOYGAN LAKESH 1100   66     270/  8/ 11 1011.1R
PORT WASHINGTON  1140   67     290/  8/ 15 1012.2R
MILWAUKEE LAKESH 1100   65     290/  8/ 10   N/A
S MID LAKE BUOY  1050   65 64  290/  8/ 10 1011.7R   2/ 4
KENOSHA   LAKESH 1100   66     290/  9/ 12   N/A
$$

TC  - TEMPERATURE IN CELSIUS
VSB - VISIBILITY IN STATUTE MILES
WCI - WIND CHILL INDEX
HX  - HEAT INDEX




USA.gov is the U.S. government's official web portal to all federal, state and local government web resources and services.